C/2024 L5 ( ATLAS )

Japanese version
Home page
Updated on February 9, 2025

---------------------------------------------------------------------

* Profile

Discovery Date June 14, 2024
Magnitude 17.6 mag
Discoverer Asteroid Terrestrial-Impact Last Alert System (ATLAS) search program

* Pictures

* Orbital Elements

Epoch 2024 Oct. 17.0 TT = JDT 2460600.5
T 2025 Mar. 10.47203 TT                                 Rudenko
q   3.4319184            (2000.0)            P               Q
z  -0.0108850      Peri.  290.52595     -0.86089027     -0.48561047
 +/-0.0000181      Node   139.16853     -0.33551816     +0.76616763
e   1.0373565      Incl.  166.57311     -0.38248597     +0.42091524
From 250 observations 2024 June 14-Sept. 25, mean residual 0".5.

* Finding Charts

* Magnitudes Graph

        m1 = -0.7 + 5 log d + 25.0 log r

---------------------------------------------------------------------

The orbital elements are published on M.P.E.C. 2024-T138.
The charts are made with StellaNavigator Ver.11 (AstroArts).
The magnitudes graphs are made with Comet for Windows.

---------------------------------------------------------------------

Copyright(C) Seiichi Yoshida (comet@aerith.net). All rights reserved.